Regional Weather Roundup
Issued by NWS

Home | Current Version | Previous Version | Graphics & Text | Print | Product List | Glossary On
Versions: 1 2 3 4 5 6 7 8 9 10 11 12 13 14 15 16 17 18 19 20 21 22 23 24 25 26 27 28 29 30 31 32 33 34 35 36 37 38 39 40 41 42 43 44 45 46 47 48
000
ASUS45 KTFX 031210
RWRMT
MONTANA REGIONAL WEATHER ROUNDUP
NATIONAL WEATHER SERVICE GREAT FALLS MT
600 AM MDT MON AUG 03 2015

NOTE: "FAIR" INDICATES FEW OR NO CLOUDS BELOW 12000 FEET WITH NO
SIGNIFICANT WEATHER AND/OR OBSTRUCTIONS TO VISIBILITY.

MTZ001>007-043-031300-
WEST OF THE DIVIDE

CITY           SKY/WX    TMP DP  RH WIND       PRES   REMARKS
KALISPELL      SUNNY     49  40  71 NW3       29.88S
MISSOULA       MOCLDY    55  40  56 CALM      29.93R
BUTTE          CLEAR     52  39  61 CALM      30.07S
MULLAN PASS    PTCLDY    70  21  15 SE5       30.06F
DEER LODGE       N/A     50  39  66 CALM      30.05S
EUREKA           N/A     54  36  50 CALM      29.89S
HAMILTON         N/A     54  41  62 SE2       29.93S
LIBBY            N/A     54  32  43 CALM      29.89R
PLAINS           N/A     52  36  54 CALM      29.89S
RONAN            N/A     52  42  68 CALM      29.93F
THOMPSON FALLS   N/A     53  35  50 CALM      29.92R
$$

MTZ008-052>055-031300-
SOUTHWEST MONTANA

CITY           SKY/WX    TMP DP  RH WIND       PRES   REMARKS
BOZEMAN        PTCLDY    55  45  68 S3        30.01S
DILLON         PTCLDY    56  32  40 S7        30.04R
W YELLOWSTONE  MOCLDY    45  39  81 CALM      30.16R
THREE FORKS      N/A     50  47  89 CALM      30.00S
TWIN BRIDGES     N/A     53  36  52 CALM      30.02S
$$

MTZ009-010-012-014-046-048-049-054-031300-
EAST SLOPES AND CENTRAL MONTANA

CITY           SKY/WX    TMP DP  RH WIND       PRES   REMARKS
CUT BANK       CLEAR     51  46  83 CALM      29.96S
GREAT FALLS    CLEAR     57  45  64 CALM      29.94S
MALMSTROM AFB  CLEAR     55  49  81 NE6       29.95R
HELENA         PTCLDY    59  42  53 W7        29.98S
CONRAD           N/A     45  45 100 CALM      29.98S
$$

MTZ011-013-016-021-045-047-050-051-031300-
NORTH CENTRAL MONTANA

CITY           SKY/WX    TMP DP  RH WIND       PRES   REMARKS
HAVRE          CLEAR     58  51  78 E12       29.93S
LEWISTOWN      CLEAR     61  46  57 E12       30.01S
CHINOOK          N/A     59  52  77 E10       29.97R
FORT BENTON      N/A     64  48  55 E10G16    29.93F
$$

MTZ017>020-022>027-061-062-031300-
NORTHEAST MONTANA

CITY           SKY/WX    TMP DP  RH WIND       PRES   REMARKS
GLASGOW        CLEAR     56  48  74 SE10      30.02R
JORDAN           N/A     52  45  77 CALM      30.01F
SIDNEY         CLEAR     52  46  82 CALM      30.04R
WOLF POINT     CLEAR     52  46  80 NE5       30.03F
MALTA            N/A     56  48  74 CALM      29.98R
PLENTYWOOD       N/A     52  48  87 NW5       30.04S
POPLAR           N/A     54  48  82 CALM      30.04S
SCOBEY           N/A     49  44  83 CALM      30.03S
$$

MTZ028>42-056>058-031300-
SOUTHCENTRAL AND SOUTHEAST MONTANA

CITY           SKY/WX    TMP DP  RH WIND       PRES   REMARKS
BAKER          CLEAR     51  45  79 SE6       30.07R
BILLINGS       PTCLDY    62  45  53 N6        30.01R
LIVINGSTON     CLEAR     56  42  59 NW3       30.05R
MILES CITY     CLEAR     59  47  64 NE9       30.01S
FORSYTH          N/A     57  48  72 CALM      29.99S
LAUREL           N/A     58  44  59 CALM      30.00R
ROUNDUP          N/A     58  43  57 CALM      29.93S
$$

REGIONAL REPORTS...DAKOTAS

CITY           SKY/WX    TMP DP  RH WIND       PRES   REMARKS
WILLISTON      CLEAR     52  48  86 CALM      30.03S
MINOT          CLEAR     53  48  83 W7        29.99F
DICKINSON      CLEAR     47  44  90 CALM      30.04R
BEACH          FAIR      46  46 100 S3        30.06R
CROSBY         FAIR      46  46 100 S5        30.04R
BISMARCK       CLEAR     55  51  86 NW3       30.02R
GRAND FORKS    CLEAR     51  48  89 W7        29.91R
FARGO          CLEAR     53  47  79 CALM      29.93R
BUFFALO SD       N/A     56  48  74 NE7       29.99S
RAPID CITY     CLEAR     58  52  80 NE7       30.03R
$$

REGIONAL REPORTS...WYOMING/IDAHO/WASHINGTON

CITY           SKY/WX    TMP DP  RH WIND       PRES   REMARKS
GILLETTE       PTCLDY    52  48  86 CALM      30.05S
SHERIDAN       CLEAR     52  45  77 NW3       30.01S
BUFFALO WY     PTCLDY    64  46  52 S6        30.08S
CODY           PTCLDY    57  45  62 N5        30.07S
YELLOWSTONE LA   N/A     45  37  73 W3        30.26R
IDAHO FALLS    CLOUDY    61  47  59 NE6       30.00R
SALMON         PTCLDY    52  45  76 CALM      29.94R
BOISE          MOCLDY    78  48  34 N7        29.86R
SPOKANE        PTCLDY    69  25  19 S5        29.81R
$$

REGIONAL REPORTS...ALBERTA

CITY           SKY/WX    TMP DP  RH WIND       PRES   REMARKS
EDMONTON       CLEAR     61  54  77 SE9       29.88F
CALGARY        CLOUDY    57  50  77 S6        29.91F
LETHBRIDGE     PTCLDY    52  50  93 S7        29.91S
MEDICINE HAT   CLEAR     59  52  77 NE5       29.92S
WATERTON GATE    N/A     48  46  93 CALM        N/A
MILK RIVER       N/A     61  50  67 S13         N/A
ONEFOUR          N/A     57  48  72 E14         N/A
$$

REGIONAL REPORTS...SASKATCHEWAN

CITY           SKY/WX    TMP DP  RH WIND       PRES   REMARKS
SWIFT CURRENT  CLEAR     54  50  87 S8        30.02R
REGINA         PTCLDY    52  50  93 VRB2      30.02S
SASKATOON      MOCLDY    52  50  93 SW6       30.02R
CYPRESS HILLS    N/A     55  46  71 SE8         N/A
VAL MARIE        N/A     50  48  93 NE3         N/A
ROCKGLEN         N/A     55  50  82 SE6         N/A
$$



USA.gov is the U.S. government's official web portal to all federal, state and local government web resources and services.